Regional Weather Roundup
Issued by NWS

Home | Current Version | Previous Version | Text Only | Print | Product List | Glossary Off
Versions: 1 2 3 4 5 6 7 8 9 10 11 12 13 14 15 16 17 18 19 20 21 22 23 24 25 26 27 28 29 30 31 32 33 34 35 36 37 38 39 40 41 42 43 44 45 46 47 48 49 50

000
ASUS43 KDTX 191001
RWRMI
MICHIGAN HOURLY REGIONAL WEATHER ROUNDUP
NATIONAL WEATHER SERVICE DETROIT/PONTIAC MI
600 AM EDT SUN APR 19 2015

NOTE: "FAIR" INDICATES FEW OR NO CLOUDS BELOW 12,000 FEET WITH NO
SIGNIFICANT WEATHER AND/OR OBSTRUCTION TO VISIBILITY.

MIZ047>049-052>055-059>063-066>070-074>076-081>083-191100-
SOUTHEAST LOWER MICHIGAN

CITY           SKY/WX    TMP DP  RH WIND       PRES   REMARKS
ADRIAN         PTCLDY    44  33  65 E12       30.04F
ALMA           MOCLDY    41  31  68 E9        30.08F
ANN ARBOR      PTCLDY    45  30  55 E9        30.06S
BAD AXE        PTCLDY    37  27  67 E3        30.14S
CARO           PTCLDY    39  28  65 CALM      30.10F
DETROIT CITY   MOCLDY    43  32  65 E7        30.08F
DETROIT        PTCLDY    48  30  49 E9G18     30.07F
FLINT          MOCLDY    42  30  62 E10       30.09F
GROSSE ILE     CLEAR     45  32  61 NE8       30.05F
HILLSDALE      MOCLDY    47  30  50 E20       30.01F
HOWELL         MOCLDY    46  27  46 E10G18    30.05F

CITY           SKY/WX    TMP DP  RH WIND       PRES   REMARKS
JACKSON        PTCLDY    47  29  49 E14       30.03S
LAMBERTVILLE   PTCLDY    46  34  61 E10G20    30.04S
LANSING        MOCLDY    41  30  65 E8        30.05F
LAPEER         FAIR      38  29  69 CALM      30.10F
MASON          PTCLDY    43  30  60 E6        30.04F
MONROE         CLEAR     48  30  49 E14G21    30.04S
PONTIAC        MOCLDY    43  28  55 E8        30.07F
PORT HOPE        N/A     41  33  73 E13       30.13S
PORT HURON     MOCLDY    37  30  75 E7        30.11F WCI  32
TRI CITIES     PTCLDY    41  29  62 E10       30.09F
TROY           PTCLDY    43  30  59 NE6       30.10F
SAGINAW HB     MOCLDY    36  30  80 E5        30.08F WCI  32
$$
MIZ043>046-050>051-056>058-064>065-071>073-077>080-191100-
SOUTHWEST LOWER MICHIGAN

CITY           SKY/WX    TMP DP  RH WIND       PRES   REMARKS
BATTLE CREEK   PTCLDY    49  28  44 E13       30.00F
BENTON HARBOR  CLOUDY    52  28  39 E15       29.93F
BIG RAPIDS     MOCLDY    43  30  61 SE8       30.05F
COLDWATER      MOCLDY    49  27  41 E13G20    29.99F
FREMONT        CLOUDY    46  26  45 E12G18    30.01F
HOLLAND        MOCLDY    47  31  53 E12       29.99F
GRAND RAPIDS   MOCLDY    43  29  57 E16       30.02F
IONIA          FAIR      41  31  68 E8        30.04S
KALAMAZOO      FAIR      49  29  46 E6        29.99F
LUDINGTON      PTCLDY    48  28  44 E14G22    30.00F
MARSHALL       PTCLDY    46  29  51 E9        30.00F
MOUNT PLEASANT PTCLDY    38  33  82 NE7       30.08F WCI  33
MUSKEGON       MOCLDY    47  29  49 E14       29.99F
SOUTH HAVEN    CLOUDY    53  25  33 E15G21    29.95F
$$
MIZ016>042-191100-
NORTHERN LOWER MICHIGAN

CITY           SKY/WX    TMP DP  RH WIND       PRES   REMARKS
ALPENA         CLEAR     38  29  70 SE9       30.18F WCI  31
BEAVER ISLAND  CLEAR     38  29  70 E14       30.09F WCI  29
BELLAIRE       CLEAR     45  22  40 E7        30.09F
CADILLAC       PTCLDY    40  25  54 E12       30.06F WCI  34
CHARLEVOIX     CLEAR     44  24  44 SE13      30.12S
FRANKFORT      PTCLDY    50  18  27 E8        30.02F
GAYLORD        CLEAR     37  25  61 SE9       30.11F WCI  30
GRAYLING       CLEAR     32  24  72 E5        30.12F WCI  28
HARBOR SPRINGS CLEAR     39  27  60 E12G20    30.13R WCI  32
HOUGHTON LAKE  CLEAR     38  24  57 E8        30.10F WCI  32
MANISTEE       PTCLDY    46  25  42 E14       30.02F
OSCODA         CLEAR     39  31  71 E9G16     30.16F WCI  33
PELLSTON       CLEAR     38  27  64 E10       30.15S WCI  31
ROGERS CITY    CLEAR     36  31  81 SE7       30.19S WCI  31
TRAVERSE CITY  CLEAR     45  24  43 VRB7G17   30.06F
$$
MIZ007>008-015-191100-
EASTERN UPPER MICHIGAN

CITY           SKY/WX    TMP DP  RH WIND       PRES   REMARKS
KINROSS        CLEAR     36  27  69 E15       30.18R WCI  26
MACKINAC ISLAN CLEAR     36  30  78 E16G28    30.15F WCI  26
NEWBERRY       CLEAR     36  28  72 E16       30.12S WCI  26
S. S. MARIE    CLEAR     37  24  59 E9        30.18S WCI  30
$$
MIZ004>006-011>014-085-191100-
CENTRAL UPPER MICHIGAN

CITY           SKY/WX    TMP DP  RH WIND       PRES   REMARKS
MANISTIQUE     CLEAR     40  29  64 E10G17    30.08S WCI  34
ESCANABA       MOCLDY    37  27  65 E7        30.05F WCI  32
MENOMINEE      CLEAR     39  27  60 E7        30.00F WCI  34
$$
MIZ001>003-009>011-084-191100-
WESTERN UPPER MICHIGAN

CITY           SKY/WX    TMP DP  RH WIND       PRES   REMARKS
IRON MOUNTAIN  MOCLDY    39  27  62 SE6       30.00F WCI  35
HOUGHTON       CLOUDY    36  28  73 E14       29.97F WCI  27
COPPER HARBOR    N/A     38  28  67 SW9G20    30.01F WCI  31
IRONWOOD       CLOUDY    45  37  76 E6        29.90F
$$

ABBREVIATIONS USED IN REMARKS
   TC - TEMPERATURE IN CELSIUS
  WCI - WIND CHILL INDEX
   HX - HEAT INDEX
  VSB - VISIBILITY



USA.gov is the U.S. government's official web portal to all federal, state and local government web resources and services.